Regional Weather Roundup
Issued by NWS

Home | Current Version | Previous Version | Graphics & Text | Print | Product List | Glossary On
Versions: 1 2 3 4 5 6 7 8 9 10 11 12 13 14 15 16 17 18 19 20 21 22 23 24 25 26 27 28 29 30 31 32 33 34 35 36 37 38 39 40 41 42 43 44 45 46 47 48 49 50
236
ASUS43 KIND 230209
RWRIN

WEATHER ROUNDUP FOR INDIANA
NATIONAL WEATHER SERVICE INDIANAPOLIS IN
1000 PM EDT MON MAY 22 2017

NOTE: "FAIR" INDICATES FEW OR NO CLOUDS BELOW 12,000 FEET WITH NO
SIGNIFICANT WEATHER AND/OR OBSTRUCTIONS TO VISIBILITY.

* - STATION DOES NOT REPORT WEATHER SUCH AS PRECIPITATION OR FOG.

+ - STATION NOT QUALITY CONTROLLED BY THE NATIONAL WEATHER SERVICE.
    USE DATA WITH CAUTION...ESPECIALLY DEWPOINT AND RELATIVE
    HUMIDITY OBSERVATIONS.

INZ001>003-010>013-019-020-230300-
NORTHWEST INDIANA

CITY           SKY/WX    TMP DP  RH WIND       PRES   REMARKS
GARY /AIRPORT/ CLOUDY    66  50  55 SW17      29.95S
KNOX *+        CLOUDY    64  36  34 SW13      29.95F
LA PORTE +     CLOUDY    65  48  54 SW10      29.96S
MICHIGAN CITY+ CLOUDY    64  46  52 SW14G21   29.95R
MONTICELLO +   CLOUDY    64  46  52 S3        29.96F
RENSSELAER +   CLOUDY    64  43  45 SW7       29.96F
VALPARAISO     CLOUDY    66  50  56 SW15      29.96R

$$

LMZ046-743>745-230300-
SOUTHERN LAKE MICHIGAN

STATION/POSITION TIME  TEMP    WIND        PRES    WAVE
                       AIR SEA DIR/SP/G            HT
                 (UTC) (F)     (DEG/KT/KT) (MB)    (FT)
BURNS HARBOR     0140   64     230/ 16/ 23 1014.2R
MICHIGAN CITY    0140   62     230/ 20/ 21   N/A
5NW MICH CITY    0200   58 53  230/ 12/ 16   N/A     2

$$

INZ004-005-014>016-021>024-230300-
NORTH CENTRAL INDIANA

CITY           SKY/WX    TMP DP  RH WIND       PRES   REMARKS
GOSHEN         CLOUDY    64  47  53 S10       29.97S
LOGANSPORT +   PTCLDY    61  50  67 SW5       29.99S
PERU/GRISSOM   CLOUDY    62  53  72 S5        29.97F
ROCHESTER +    CLOUDY    66  50  55 SW5       29.97F
SOUTH BEND     CLOUDY    64  48  56 S13       29.95S
WARSAW +       CLOUDY    64  46  52 SW5       29.97F

$$

INZ006>009-017-018-025>027-230300-
NORTHEAST INDIANA

CITY           SKY/WX    TMP DP  RH WIND       PRES   REMARKS
ANGOLA *+      CLOUDY    63  55  77 S7        29.98S
AUBURN +       MOCLDY    59  50  72 CALM      30.00S
FORT WAYNE     MOCLDY    62  49  62 S5        29.99F
HUNTINGTON +   PTCLDY    59  51  74 CALM      29.98F
KENDALLVILLE + PTCLDY    62  48  59 S6        29.98F

$$

INZ028-029-035-036-043>045-051>053-230300-
WEST CENTRAL INDIANA

CITY           SKY/WX    TMP DP  RH WIND       PRES   REMARKS
CRAWFORDSVL +  CLEAR     57  52  81 CALM      29.98S
GREENCASTLE +  CLOUDY    59  48  67 CALM      29.99S
LAFAYETTE      CLOUDY    64  49  57 CALM      29.96F
TERRE HAUTE    CLOUDY    63  52  67 CALM      29.98S

$$

INZ030>032-037>040-046>048-054>057-064-065-230300-
CENTRAL INDIANA

CITY           SKY/WX    TMP DP  RH WIND       PRES   REMARKS
CP ATTERBURY + CLOUDY    59  50  72 CALM      30.00S
COLUMBUS       PTCLDY    63  45  51 S5        30.00F
FISHERS *+     CLOUDY    57  54  88 CALM      29.99S
FRANKFORT +    MOCLDY    64  54  70 CALM      30.00F
GREENWOOD *+   CLOUDY    64  48  57 S5        30.00S
INDIANAPOLIS   CLOUDY    67  44  43 CALM      29.98F
-EAGLE CREEK   CLOUDY    63  49  60 CALM      29.98S
KOKOMO +       CLOUDY    64  54  69 CALM      29.99F
MARION +       PTCLDY    59  50  72 CALM      30.00F HAZE
MT COMFORT *+  CLOUDY    63  50  63 SE3       30.00S
SHELBYVILLE    CLOUDY    63  49  60 SE6       29.99S
ZIONSVILLE +   CLOUDY    58  53  84 CALM      29.99F

$$

INZ033-034-041-042-049-050-058-059-230300-
EAST CENTRAL INDIANA

CITY           SKY/WX    TMP DP  RH WIND       PRES   REMARKS
MUNCIE         CLOUDY    61  50  67 CALM      30.00S
RICHMOND +     CLOUDY    59  52  77 S6        30.02S

$$

INZ060-061-067>069-081>083-085>088-230300-
SOUTHWEST INDIANA

CITY           SKY/WX    TMP DP  RH WIND       PRES   REMARKS
EVANSVILLE     MOCLDY    65  50  58 CALM      30.00R
HUNTINGBURG *+ CLOUDY    62  54  74 CALM      30.00R
WASHINGTON +   CLOUDY    63  54  71 SE3       29.99R

$$

INZ062-063-066-070>080-084-089>092-230300-
SOUTH CENTRAL AND SOUTHEAST INDIANA

CITY           SKY/WX    TMP DP  RH WIND       PRES   REMARKS
BEDFORD +      CLOUDY    59  48  67 CALM      29.99S
BLOOMINGTON    CLOUDY    61  51  70 CALM      29.99S
MADISON *+     CLOUDY    55  52  88 CALM      30.03S
NORTH VERNON + CLOUDY    59  48  67 SE3       30.02R
SEYMOUR +      CLOUDY    63  52  67 SE5       30.01

$$





USA.gov is the U.S. government's official web portal to all federal, state and local government web resources and services.